Terminal Aerodrome Forecast
Issued by NWS

Home | Current Version | Previous Version | Text Only | Print | Product List | Glossary On
Versions: 1 2 3 4 5 6 7 8 9 10 11 12 13 14 15 16 17 18 19 20 21 22 23 24 25
000
FTUS45 KRIW 201100
TAFPNA
TAF
KPNA 201121Z 2012/2112 30006KT P6SM VCFG SCT080 BKN110
     FM201600 VRB05KT P6SM FEW060 SCT110
     FM202200 29011KT P6SM VCTS SCT060CB BKN100
     FM210200 VRB06KT P6SM VCSH SCT080 BKN110
     FM210700 30006KT P6SM SCT110 BKN200
      AMD LTD TO CLD VIS AND WIND=

USA.gov is the U.S. government's official web portal to all federal, state and local government web resources and services.